| time (UTC) | temp F | wind direction | speed knots | gust knots | rain 1hr in | rain 24hr in | rain mn in | humidity % | barometer mb |
| 20260504044043 | 51 | 329 | 0.0 | 0.0 | 0.00 | 0.00 | 0.00 | 100 | |
| 20260504043043 | 54 | 329 | 0.0 | 0.0 | 0.00 | 0.00 | 0.00 | 100 | |
| 20260504041040 | 55 | 329 | 0.0 | 0.0 | 0.00 | 0.00 | 0.00 | 100 | |
| 20260504040041 | 56 | 329 | 0.0 | 0.0 | 0.00 | 0.00 | 0.00 | 100 | |
| 20260504035043 | 56 | 329 | 0.0 | 2.6 | 0.00 | 0.00 | 0.00 | 100 | |
| 20260504033043 | 60 | 336 | 0.0 | 0.0 | 0.00 | 0.00 | 0.00 | 100 | |
| 20260504031044 | 64 | 315 | 0.0 | 0.0 | 0.00 | 0.00 | 0.00 | 100 | |
| 20260504030042 | 64 | 331 | 0.0 | 0.0 | 0.00 | 0.00 | 0.00 | 100 | |
| 20260504025043 | 66 | 331 | 0.0 | 5.2 | 0.00 | 0.00 | 0.00 | 100 | |
| 20260504023042 | 66 | 278 | 0.0 | 5.2 | 0.00 | 0.00 | 0.00 | 100 | |
| 20260504022043 | 67 | 292 | 0.0 | 5.2 | 0.00 | 0.00 | 0.00 | 100 | |
| 20260504021044 | 68 | 296 | 0.0 | 5.2 | 0.00 | 0.00 | 0.00 | 100 | |
| 20260504020042 | 68 | 317 | 2.6 | 7.0 | 0.00 | 0.00 | 0.00 | 100 | |
| 20260504015041 | 68 | 322 | 0.0 | 4.3 | 0.00 | 0.00 | 0.00 | 100 | |
| 20260504014043 | 69 | 334 | 0.0 | 6.1 | 0.00 | 0.00 | 0.00 | 100 | |
| 20260504013043 | 70 | 310 | 0.0 | 4.3 | 0.00 | 0.00 | 0.00 | 100 | |
| 20260504011043 | 70 | 296 | 0.0 | 8.7 | 0.00 | 0.00 | 0.00 | 100 | |
| 20260504010043 | 71 | 307 | 2.6 | 2.6 | 0.00 | 0.00 | 0.00 | 100 | |
| 20260504005044 | 71 | 313 | 0.0 | 7.0 | 0.00 | 0.00 | 0.00 | 100 | |
| 20260504004044 | 71 | 330 | 0.0 | 5.2 | 0.00 | 0.00 | 0.00 | 100 | |
| 20260504003041 | 72 | 319 | 3.5 | 5.2 | 0.00 | 0.00 | 0.00 | 100 | |
| 20260504001044 | 71 | 336 | 2.6 | 8.7 | 0.00 | 0.00 | 0.00 | 100 | |
| 20260504000043 | 72 | 355 | 0.0 | 9.6 | 0.00 | 0.00 | 0.00 | 100 | |
| 20260503235044 | 71 | 32 | 0.0 | 7.0 | 0.00 | 0.00 | 0.00 | 100 | |
| 20260503233045 | 72 | 345 | 1.7 | 5.2 | 0.00 | 0.00 | 0.00 | 100 | |
| 20260503232042 | 74 | 271 | 3.5 | 4.3 | 0.00 | 0.00 | 0.00 | 100 | |
| 20260503231045 | 72 | 292 | 0.0 | 8.7 | 0.00 | 0.00 | 0.00 | 100 | |
| 20260503230044 | 71 | 2 | 0.0 | 6.1 | 0.00 | 0.00 | 0.00 | 100 | |
| 20260503222042 | 71 | 350 | 3.5 | 6.1 | 0.00 | 0.00 | 0.00 | 100 | |
| 20260503221044 | 73 | 358 | 1.7 | 7.0 | 0.00 | 0.00 | 0.00 | 100 | |
| 20260503214044 | 72 | 358 | 1.7 | 4.3 | 0.00 | 0.00 | 0.00 | 100 | |
| 20260503213045 | 73 | 195 | 0.0 | 6.1 | 0.00 | 0.00 | 0.00 | 100 | |
| 20260503212105 | 72 | 167 | 0.0 | 0.0 | 0.00 | 0.00 | 0.00 | 100 | |
| 20260503205045 | 69 | 167 | 0.0 | 0.0 | 0.00 | 0.00 | 0.00 | 100 | |
| 20260503204044 | 68 | 167 | 0.0 | 0.0 | 0.00 | 0.00 | 0.00 | 100 | |
| 20260503203041 | 68 | 167 | 0.0 | 0.9 | 0.00 | 0.00 | 0.00 | 100 | |
| 20260503202041 | 68 | 319 | 0.0 | 4.3 | 0.00 | 0.00 | 0.00 | 100 | |
| 20260503201041 | 68 | 198 | 0.0 | 5.2 | 0.00 | 0.00 | 0.00 | 100 | |
| 20260503200041 | 69 | 260 | 0.0 | 4.3 | 0.00 | 0.00 | 0.00 | 100 | |
| 20260503195041 | 69 | 14 | 4.3 | 4.3 | 0.00 | 0.00 | 0.00 | 100 | |
| 20260503194041 | 68 | 174 | 0.0 | 1.7 | 0.00 | 0.00 | 0.00 | 100 | |
| 20260503193041 | 67 | 203 | 0.0 | 11.3 | 0.00 | 0.00 | 0.00 | 100 | |
| 20260503192041 | 65 | 230 | 0.0 | 0.0 | 0.00 | 0.00 | 0.00 | 100 | |
| 20260503191044 | 64 | 230 | 0.0 | 0.0 | 0.00 | 0.00 | 0.00 | 100 | |
| 20260503190041 | 63 | 230 | 0.0 | 0.0 | 0.00 | 0.00 | 0.00 | 100 | |
| 20260503185041 | 62 | 230 | 0.0 | 0.0 | 0.00 | 0.00 | 0.00 | 100 | |
| 20260503184041 | 60 | 230 | 0.0 | 0.0 | 0.00 | 0.00 | 0.00 | 100 | |
| 20260503183041 | 60 | 230 | 0.0 | 1.7 | 0.00 | 0.00 | 0.00 | 100 | |
| 20260503182041 | 58 | 330 | 0.0 | 0.0 | 0.00 | 0.00 | 0.00 | 100 | |
| 20260503181042 | 58 | 330 | 0.0 | 0.0 | 0.00 | 0.00 | 0.00 | 100 | |
| 20260503180042 | 56 | 330 | 0.0 | 0.0 | 0.00 | 0.00 | 0.00 | 100 | |
| 20260503175042 | 54 | 330 | 0.0 | 0.0 | 0.00 | 0.00 | 0.00 | 100 | |
| 20260503174042 | 53 | 330 | 0.0 | 0.0 | 0.00 | 0.00 | 0.00 | 100 | |
| 20260503171054 | 49 | 330 | 0.0 | 0.0 | 0.00 | 0.00 | 0.00 | 100 |